User: anonymous   Login
Location: ??????
(41.3164°N, 22.6615°E)
Time: 10:03:27
(UTC+00:00)
Language:

NOAA 16 DEB - Orbit

View from above orbital plane
View from above orbital plane
View from above satellite
View from above satellite

Ground track
Ground track

The orbit data is extracted from the following two-line orbital elements,

1 41662U 00055PB  22228.50236462  .00004105  00000-0  18790-2 0  9990
2 41662  98.8941 332.2468 0015335 228.0097 131.9774 14.21899522327077
Epoch (UTC): 16 August 2022 12:03:24
Eccentricity: 0.0015335
inclination: 98.8941°
perigee height: 808 km
apogee height: 830 km
right ascension of ascending node: 332.2468°
argument of perigee: 228.0097°
revolutions per day: 14.21899522
mean anomaly at epoch: 131.9774°
orbit number at epoch: 32707

The dashed part of the orbit path shows where the satellite is in the earth's shadow,  

DLR